Regional Weather Roundup
Issued by NWS

Home | Current Version | Previous Version | Graphics & Text | Print | Product List | Glossary On
Versions: 1 2 3 4 5 6 7 8 9 10 11 12 13 14 15 16 17 18 19 20 21 22 23 24 25 26 27 28 29 30 31 32 33 34 35 36 37 38 39 40 41 42 43 44 45 46 47 48 49 50
000
ASUS43 KLMK 010402
RWRKY
KENTUCKY REGIONAL WEATHER ROUNDUP
NATIONAL WEATHER SERVICE LOUISVILLE KY
1100 PM EST SAT FEB 28 2015

NOTE "FAIR" INDICATES FEW OR NO CLOUDS BELOW 12,000 FEET
WITH NO SIGNIFICANT WEATHER AND/OR OBSTRUCTIONS TO VISIBILITY.

KYZ001>023-026-027-061>063-070>075-010500-
WESTERN AND SOUTH CENTRAL KENTUCKY

CITY           SKY/WX    TMP DP  RH WIND       PRES   REMARKS
PADUCAH        CLOUDY    33  20  58 E8        30.45S WCI  26
HENDERSON      CLOUDY    34  19  55 N8        30.48F WCI  27
OWENSBORO      CLOUDY    34  21  59 NE7       30.48R WCI  28
HOPKINSVILLE   CLOUDY    34  26  72 NE6       30.42F WCI  29
BOWLING GREEN  CLOUDY    37  22  54 N5        30.45R WCI  33
GLASGOW        NOT AVBL
$$

KYZ024-025-028>034-038-045-046-053-010500-
NORTH CENTRAL KENTUCKY

CITY           SKY/WX    TMP DP  RH WIND       PRES   REMARKS
LOUISVILLE/SDF MIX PCPN  34  20  56 N6        30.48S WCI  29
LOUISVILLE/LOU CLOUDY    33  18  53 CALM      30.50R
FORT KNOX      CLOUDY    32  21  63 NE9       30.43F WCI  24
$$

KYZ035>037-039>044-047>052-055>060-089>105-010500-
NORTHEAST KENTUCKY

CITY           SKY/WX    TMP DP  RH WIND       PRES   REMARKS
LEXINGTON      CLOUDY    33  21  61 N5        30.46F WCI  29
COVINGTON      CLOUDY    27  14  58 N7        30.50S WCI  19
FRANKFORT        N/A     32  17  54 N3        30.46F
$$

KYZ054-064>069-076>088-106>120-010500-
SOUTHEAST KENTUCKY

CITY           SKY/WX    TMP DP  RH WIND       PRES   REMARKS
JACKSON        MOCLDY    36  17  46 E5        30.43F WCI  32
LONDON         MOCLDY    36  21  54 CALM      30.44F
SOMERSET       NOT AVBL
MIDDLESBORO    NOT AVBL
MONTICELLO     PTCLDY    33  28  82 CALM      30.46F
$$




USA.gov is the U.S. government's official web portal to all federal, state and local government web resources and services.